Theta_e
299 297 301 303 303 304 303 303 302 302 302 301 301 301 301 301 300 300 300 300 300 300 299 299 299 299 299 299 299 299 298 298 298 298 298 298 297 297 296 296 296 296 296 296 296 296 296 296 296 296 296 296
298 298 301 303 303 303 303 302 302 302 302 301 301 301 301 300 300 300 300 300 300 300 299 299 299 299 299 299 299 299 298 298 298 298 298 297 297 297 296 296 296 296 295 295 295 295 296 296 296 296 296 296
298 298 301 303 303 303 303 302 302 302 301 301 301 301 301 300 300 300 300 300 300 300 300 300 299 299 299 299 299 299 298 298 298 298 297 297 297 297 296 296 296 296 295 295 295 295 295 295 295 295 295 296
298 298 301 303 303 303 303 302 302 302 301 301 301 301 301 300 300 300 300 300 300 300 300 300 299 299 299 299 299 299 299 298 298 297 297 297 297 297 297 297 296 296 296 295 295 295 295 295 295 295 295 295
298 298 301 302 303 303 302 302 302 301 301 301 301 301 300 300 300 300 300 300 300 300 300 299 299 299 299 299 299 299 299 298 298 298 297 297 297 297 297 297 297 297 297 296 295 295 295 295 295 295 295 295
298 298 301 302 302 303 302 302 302 301 301 301 301 300 300 300 300 300 300 300 300 300 299 299 299 299 299 299 299 299 299 298 298 298 298 297 297 297 297 297 297 297 297 297 296 295 295 295 295 294 294 294
298 298 300 302 302 302 302 302 302 301 301 301 301 300 300 300 300 300 300 300 300 299 299 299 299 299 299 299 299 298 298 298 298 298 298 298 298 297 297 297 297 298 297 297 296 296 296 295 295 294 294 294
297 298 299 301 302 302 302 302 302 301 301 301 301 300 300 300 300 300 300 300 299 299 299 299 299 299 299 299 298 298 298 298 298 297 297 297 297 297 297 297 297 298 298 297 297 296 296 295 295 295 294 294
297 297 298 300 301 301 301 301 301 301 301 301 301 300 300 300 300 300 300 299 299 299 299 299 299 298 298 298 298 298 298 298 298 297 297 297 297 297 297 297 297 297 297 297 297 297 296 296 295 295 295 294
297 297 297 298 300 300 301 301 301 301 301 301 301 300 300 300 300 300 300 299 299 299 299 298 298 298 298 298 298 298 297 297 297 297 297 297 297 297 297 297 297 297 297 297 297 297 297 296 296 295 295 295
297 297 297 298 299 299 300 300 300 300 301 301 300 300 300 300 300 300 299 299 299 298 298 298 298 298 298 297 297 297 297 297 297 297 297 297 297 297 297 297 297 297 297 297 297 297 297 297 296 295 295 295
298 297 298 298 298 298 298 299 299 299 299 299 299 299 299 299 299 298 298 298 298 297 297 297 297 297 297 297 297 297 297 296 296 296 296 296 296 296 296 296 297 296 297 297 297 297 297 297 296 296 295 295
298 298 298 298 298 298 298 298 297 297 297 297 297 297 297 297 297 297 297 297 296 296 297 296 297 296 296 296 296 296 296 296 296 296 296 296 296 296 296 296 296 296 296 296 296 296 296 296 296 296 295 295
299 299 299 299 298 298 297 297 297 297 297 297 297 297 297 296 296 296 296 296 296 296 296 296 296 296 296 296 296 296 295 295 295 295 295 295 295 295 295 296 296 296 296 296 296 296 296 296 296 296 296 295
301 300 300 300 300 299 299 299 299 299 299 299 299 298 298 298 297 297 297 296 296 296 296 296 296 296 295 295 295 295 295 295 295 295 295 295 295 294 295 295 295 295 296 296 296 296 296 296 296 296 296 296
302 302 302 302 301 301 301 301 301 300 300 300 300 299 299 299 299 299 298 298 297 297 296 296 296 295 295 295 295 295 295 294 294 294 294 294 294 294 294 294 294 294 295 295 295 296 296 296 296 296 296 296
302 302 302 302 302 301 301 301 301 301 300 300 300 299 299 299 299 299 299 299 298 298 297 297 296 296 295 295 295 295 294 294 294 294 294 293 294 294 294 294 294 294 294 294 294 294 295 295 295 295 296 296
301 301 301 301 300 300 300 300 300 300 300 300 300 300 300 300 299 300 299 299 299 298 298 297 296 296 296 295 295 295 294 294 294 294 294 294 294 294 294 294 294 294 294 294 294 294 294 294 294 294 295 295
300 300 300 300 300 300 300 300 300 300 300 300 300 299 299 299 299 299 299 299 299 298 298 298 297 297 296 296 296 295 295 294 294 294 294 294 294 295 295 295 295 295 295 295 295 295 294 294 294 294 294 294
300 300 300 300 300 300 300 299 299 299 299 299 299 299 299 299 299 299 299 299 299 299 298 298 297 297 297 296 296 296 295 295 295 295 295 295 295 295 295 296 296 295 295 296 296 295 295 295 294 294 294 294
300 300 300 300 300 299 299 299 299 298 298 298 299 299 299 299 298 298 298 298 298 298 298 298 298 297 297 297 296 296 296 295 295 295 296 296 295 295 296 296 296 296 296 296 296 296 296 295 294 294 294 294
300 300 299 299 299 299 299 298 298 298 298 298 298 298 298 298 298 298 298 298 298 298 298 298 297 297 297 297 296 296 296 296 296 296 296 296 296 296 296 296 295 295 296 296 296 296 296 295 295 295 294 294
300 299 299 299 299 299 298 299 299 299 299 298 298 298 298 298 298 298 298 298 298 297 297 297 297 297 296 296 296 296 296 296 296 296 296 296 296 296 296 296 295 295 295 295 295 295 295 295 295 295 295 294
299 299 299 299 299 299 299 299 299 299 299 298 298 298 298 298 298 298 298 297 297 297 297 297 297 297 296 296 297 296 296 296 296 296 296 296 296 296 296 296 296 295 295 295 295 295 295 295 295 295 295 294
299 299 299 299 299 299 299 299 299 298 298 298 298 298 298 298 298 297 297 297 297 297 297 297 297 297 297 297 297 297 297 296 296 296 297 297 297 296 296 296 296 296 295 295 295 295 295 295 295 295 295 295
299 299 299 299 299 299 299 298 298 298 298 298 298 298 298 297 297 297 297 297 297 297 297 297 297 297 297 297 297 297 297 297 297 297 297 297 297 297 296 296 296 296 295 295 295 295 295 295 295 294 294 294
299 299 299 299 299 299 299 298 298 298 298 298 298 298 298 297 297 297 297 297 297 297 297 297 297 297 297 297 297 297 297 297 297 297 297 297 297 297 296 296 296 296 295 295 294 294 293 294 293 293 293 293
299 299 299 299 299 298 299 299 298 298 298 298 298 298 298 298 297 297 297 297 297 297 297 298 297 297 297 297 297 297 297 297 297 297 297 297 297 297 296 296 296 296 295 294 294 293 292 292 291 292 292 292
299 299 299 299 299 299 299 299 298 298 298 298 298 298 298 298 297 297 297 297 297 298 298 298 297 297 297 297 297 297 297 297 297 297 297 297 297 296 296 296 296 296 295 294 294 293 292 291 290 291 291 291
299 299 299 299 299 299 299 298 298 298 298 298 298 298 298 298 298 298 298 297 298 298 298 297 297 297 297 298 297 297 297 298 297 297 297 297 297 296 296 296 296 295 295 294 294 293 292 291 290 290 290 289
299 299 299 299 299 299 299 298 299 298 298 298 298 299 299 298 298 298 298 298 298 298 298 297 297 297 298 298 298 298 298 298 298 298 297 297 297 296 296 295 295 295 295 294 294 294 293 292 291 290 289 288
Wind_Speed
5 7 8 5 3 2 3 5 6 7 8 9 10 11 12 12 12 12 13 14 15 16 17 17 18 19 20 20 20 19 17 15 15 15 15 16 17 18 18 17 17 17 17 18 18 18 19 19 19 20 20 21
6 8 8 5 3 1 2 4 5 6 7 8 9 9 10 11 12 12 13 14 15 16 17 18 18 18 19 19 19 19 18 17 16 17 17 17 17 18 18 17 17 17 17 18 18 18 19 19 20 20 20 21
8 9 8 6 3 1 1 3 4 4 6 6 8 8 9 10 11 12 13 13 15 16 17 17 18 18 18 19 19 19 19 18 17 17 18 17 18 18 18 18 18 18 18 18 18 18 18 18 19 19 20 20
8 9 9 6 3 2 1 2 3 4 5 6 7 8 8 8 10 12 13 14 15 16 17 17 17 18 18 19 19 19 19 19 18 18 18 18 18 18 19 19 19 18 18 18 18 18 18 19 19 20 20 20
9 9 9 7 4 3 3 3 3 4 4 6 7 8 8 8 9 11 13 14 15 16 17 17 17 17 18 18 18 18 18 18 18 18 18 18 18 18 19 19 19 19 19 19 19 19 19 19 19 20 20 20
8 9 9 8 6 4 4 4 5 5 5 7 8 8 8 8 9 11 13 14 15 16 17 17 18 18 18 18 18 18 18 18 18 18 18 18 18 18 19 20 20 21 20 20 20 20 19 19 20 20 21 21
8 10 10 9 7 6 6 6 7 7 7 8 9 9 9 9 9 11 13 14 15 16 17 18 18 18 18 19 19 19 18 18 18 18 18 18 19 18 19 20 21 22 22 22 21 20 20 20 20 20 21 21
9 10 11 10 9 8 7 8 9 8 8 10 10 10 9 10 10 11 13 14 15 16 17 17 18 18 18 19 19 19 19 18 18 18 18 18 19 19 19 19 21 22 23 23 23 22 21 21 21 21 21 21
9 11 11 11 10 9 9 10 11 10 10 11 12 11 11 11 11 12 13 14 15 16 17 17 18 18 18 19 19 19 19 19 18 18 18 18 19 19 19 19 21 22 23 23 24 23 22 22 21 21 21 21
9 11 11 11 11 11 12 12 13 12 12 13 13 12 12 12 12 13 13 14 15 16 17 18 18 18 18 19 19 19 19 20 20 19 19 19 19 19 19 19 20 22 22 23 23 23 23 22 21 21 21 21
9 10 11 12 12 13 14 14 15 14 13 14 14 14 13 13 14 14 14 15 16 17 18 18 18 18 18 19 19 20 20 20 20 20 20 20 19 19 19 19 20 21 22 23 23 23 22 22 21 21 21 21
10 11 11 13 13 14 15 15 16 16 15 16 16 15 14 14 14 14 15 16 16 17 18 18 18 18 19 19 19 20 20 20 20 20 20 20 20 19 19 19 19 20 21 22 23 23 23 22 21 20 21 21
11 11 12 13 14 14 15 16 16 16 16 16 16 15 14 14 14 15 15 16 17 18 18 18 18 18 19 19 19 20 20 20 20 20 20 20 20 20 19 19 19 19 20 21 22 23 23 23 23 21 21 21
12 12 13 13 14 14 15 15 15 15 15 15 15 14 14 14 14 15 15 16 17 18 18 18 19 19 19 19 20 20 20 20 20 21 21 21 21 21 20 20 20 20 20 20 21 22 23 24 24 23 21 21
13 13 14 14 15 15 15 15 15 15 15 15 14 14 13 14 14 15 16 16 17 18 18 18 19 19 19 19 20 20 20 20 21 21 22 22 22 22 22 21 21 21 21 20 21 22 23 24 24 24 23 22
14 15 15 16 16 16 16 16 16 16 16 15 14 13 13 14 14 15 16 17 17 18 18 18 18 19 19 19 19 20 20 21 21 21 22 23 23 23 23 22 22 22 22 21 21 22 22 23 24 24 24 23
15 16 16 16 16 16 16 17 17 16 16 14 13 12 13 14 15 16 16 17 17 18 18 18 18 18 19 19 20 20 21 21 22 22 23 23 24 24 23 23 23 23 23 23 23 22 23 23 24 24 24 24
16 16 16 16 16 16 16 17 17 16 15 14 13 12 12 13 15 16 16 17 18 18 18 18 18 18 19 20 20 20 21 22 22 23 23 23 24 24 25 25 25 25 25 25 24 24 24 24 24 25 23 23
15 15 15 15 16 16 16 17 16 15 14 13 12 12 12 13 15 16 17 17 18 18 18 18 18 19 19 20 20 20 21 22 22 23 24 24 25 24 25 26 26 27 27 26 26 25 25 25 25 25 24 23
15 16 16 16 16 16 16 16 15 14 13 13 12 12 12 13 15 16 17 18 18 18 19 18 18 19 19 19 20 20 21 22 22 22 22 24 25 25 25 26 27 27 28 28 27 26 26 26 26 26 25 25
16 17 17 17 16 16 16 15 14 14 13 13 12 13 13 14 15 16 16 18 18 18 19 19 19 19 19 19 19 19 19 21 21 22 22 21 23 26 26 27 28 28 29 29 28 28 27 27 27 26 26 26
18 18 17 17 17 17 16 15 14 14 14 13 13 14 14 15 16 16 17 17 18 18 18 18 18 18 18 18 18 17 18 19 20 21 22 22 22 24 26 27 29 30 30 30 30 30 28 28 27 28 27 26
19 18 18 18 18 17 16 15 15 16 15 14 15 15 14 16 17 17 17 17 18 18 18 18 17 17 17 17 16 16 17 18 19 20 21 22 21 21 23 26 28 30 31 32 32 31 30 29 28 28 27 25
20 20 19 18 18 18 16 16 17 17 17 16 16 16 15 16 17 17 17 17 17 17 17 17 16 16 16 16 16 16 17 17 18 19 19 20 21 22 21 22 25 29 31 33 32 32 31 29 29 28 27 26
21 20 19 19 19 18 17 18 18 18 18 18 17 16 16 16 17 17 17 17 17 16 16 16 15 15 15 16 16 16 16 17 17 18 20 20 21 23 23 22 23 27 30 32 34 36 36 33 30 28 28 27
22 20 19 19 19 19 20 20 19 19 19 19 19 18 17 17 17 17 17 17 17 17 16 16 15 16 16 15 15 16 16 17 18 19 20 22 22 23 24 23 23 25 28 30 33 36 39 38 35 32 29 22
22 20 20 21 21 21 21 21 20 20 20 20 20 19 19 18 18 17 17 17 17 17 16 16 16 16 16 15 15 16 16 17 19 20 21 23 24 23 24 23 22 23 25 27 29 30 32 35 37 34 23 15
22 21 22 23 23 22 23 22 22 22 21 21 20 20 20 20 19 19 18 18 17 17 17 17 17 16 16 16 16 17 17 18 19 21 22 23 24 24 24 24 22 21 22 24 26 26 26 28 27 23 20 27
23 23 24 24 24 24 24 24 23 24 22 21 21 21 21 20 20 20 20 19 18 18 18 18 17 17 17 17 19 19 20 20 21 21 23 23 24 24 25 25 23 21 20 21 22 23 24 20 17 20 28 38
25 25 25 25 25 25 26 25 25 24 22 22 22 22 21 22 22 22 21 20 19 19 19 19 18 18 19 20 21 22 22 22 22 23 23 24 24 25 25 25 25 23 21 20 20 21 22 19 20 27 32 31
27 28 27 26 26 26 27 27 26 24 22 23 24 24 23 24 23 23 22 21 20 20 20 19 20 20 21 22 23 23 24 24 24 24 25 25 26 26 26 26 26 25 23 22 21 21 22 22 23 27 29 28
Wind_Direction
212 196 190 190 172 117 70 56 43 36 29 30 31 23 22 24 27 30 31 31 28 28 29 29 27 25 24 21 19 17 15 16 16 14 13 14 15 14 11 10 7 7 8 5 4 4 3 3 3 2 1 2
215 201 196 198 183 123 61 46 33 25 20 22 20 15 16 17 19 21 21 24 23 23 24 25 24 21 19 17 16 17 18 19 19 15 14 16 19 17 15 13 11 11 10 7 6 5 4 4 3 1 1 2
217 207 204 206 207 204 37 27 16 6 4 7 5 2 7 9 9 11 12 16 18 18 19 19 18 16 15 14 13 15 17 18 18 16 14 16 19 18 16 15 14 13 13 10 7 6 5 4 3 2 2 3
219 212 212 214 227 255 329 342 340 336 341 346 346 348 355 360 359 2 4 8 12 13 12 11 11 10 10 10 10 11 13 14 14 14 12 13 16 16 15 15 14 14 14 11 9 7 7 7 5 4 3 3
221 214 217 223 236 255 289 296 298 304 315 323 328 335 341 348 350 353 357 1 6 7 6 4 3 3 3 4 4 4 7 8 8 9 9 9 10 11 11 12 11 11 13 13 10 8 8 8 6 5 4 4
223 217 220 230 242 251 269 277 281 288 298 304 315 325 329 336 341 345 349 355 359 360 359 357 356 356 356 357 358 358 360 3 3 3 4 3 4 6 6 6 7 8 11 12 9 7 7 8 7 5 4 3
227 222 222 232 244 251 261 272 278 283 289 294 306 317 320 326 332 337 342 348 353 353 352 350 349 348 349 350 351 352 354 357 358 358 359 358 357 359 1 1 3 5 6 7 8 6 5 6 6 4 3 2
230 229 228 234 244 254 264 272 277 281 284 288 300 310 313 318 324 330 335 342 345 346 344 343 342 342 343 343 345 347 348 351 353 354 355 354 352 353 355 356 358 360 1 2 3 4 3 3 4 2 1 1
236 236 237 240 248 258 267 272 276 280 282 286 296 305 309 313 318 325 330 334 337 337 336 335 335 336 337 338 339 341 342 345 348 349 350 351 349 348 351 353 354 355 357 358 359 1 1 1 1 360 358 358
245 245 245 249 255 261 267 271 277 280 281 286 293 301 305 309 314 320 325 327 329 329 329 329 330 331 332 333 334 336 338 340 343 345 346 348 347 346 348 349 350 350 351 353 355 356 357 359 359 357 355 355
253 254 254 257 261 265 269 273 277 280 282 285 290 297 301 304 310 315 319 321 322 322 323 324 325 326 328 329 331 332 334 336 338 340 341 343 343 343 343 344 345 345 345 347 350 352 353 355 357 356 353 351
254 258 259 262 265 268 272 274 278 280 282 285 288 294 297 301 306 311 314 316 317 317 318 319 320 323 324 326 328 329 331 333 334 336 337 337 338 338 338 339 339 339 340 342 344 346 347 348 352 355 351 348
254 259 261 264 267 270 274 276 279 282 284 285 287 292 295 299 304 309 312 312 313 313 314 316 318 320 321 323 325 326 327 328 330 332 332 333 333 334 334 334 334 334 336 337 339 340 342 342 344 349 350 347
255 258 261 265 267 270 273 276 279 281 282 283 286 290 294 300 304 307 309 309 311 311 312 313 315 317 318 320 321 322 322 324 327 329 329 329 330 331 331 331 329 330 332 333 334 334 335 336 337 340 343 344
255 257 260 262 264 268 270 273 275 276 278 279 283 288 294 298 302 305 307 309 309 309 310 311 312 313 314 315 316 317 319 321 324 326 326 326 327 328 328 328 327 327 328 328 328 328 328 329 330 331 334 336
255 256 258 260 262 264 267 270 271 271 273 275 280 286 293 298 302 305 306 306 305 305 306 307 308 310 310 311 312 314 317 320 321 323 323 323 324 324 324 324 324 323 325 326 325 325 324 323 324 325 326 327
255 256 257 260 262 264 266 268 269 269 270 273 279 285 293 299 301 303 302 301 301 301 302 303 305 307 308 309 312 314 316 318 319 320 320 320 320 320 320 320 321 321 322 323 323 323 321 321 320 320 320 320
256 258 259 262 265 267 268 268 269 269 271 275 280 287 294 297 298 299 299 297 297 298 299 301 303 305 306 308 311 313 314 316 317 318 318 318 318 318 319 320 320 321 321 322 322 322 321 320 319 318 317 316
258 261 263 265 267 268 268 268 269 271 274 278 282 289 292 292 294 295 295 295 295 296 297 299 301 303 305 307 310 311 312 314 315 317 317 317 317 319 320 320 321 321 321 322 322 322 320 320 318 317 315 313
262 264 265 266 266 266 266 267 270 274 277 281 284 289 290 289 290 291 292 293 294 295 296 299 300 302 304 306 309 311 312 314 315 316 317 319 320 322 323 323 323 322 321 321 322 322 321 320 319 316 314 312
264 265 266 267 267 266 267 268 273 277 280 284 287 288 289 287 288 290 290 291 293 295 297 299 301 303 305 308 310 313 314 315 316 317 320 324 324 324 326 325 324 322 321 322 322 321 321 320 319 317 314 312
265 266 266 266 267 267 269 273 276 279 283 287 288 289 289 287 287 289 290 290 293 296 298 299 302 305 307 310 313 315 316 316 317 320 322 325 326 326 326 326 325 323 323 323 322 320 321 321 319 317 315 314
264 264 264 264 265 268 271 275 278 282 287 289 289 289 287 285 286 288 289 290 293 296 298 300 302 305 307 310 313 315 316 317 317 320 323 325 328 329 329 329 327 325 324 323 322 320 320 320 318 317 316 314
262 261 262 263 266 271 274 276 278 282 285 285 285 284 282 282 283 285 288 289 292 295 297 300 302 303 306 308 311 313 314 316 318 320 324 327 329 331 333 335 331 327 326 325 324 322 321 320 318 317 316 315
260 261 264 266 270 274 276 275 278 281 282 283 283 282 281 281 283 285 288 289 292 294 295 296 298 299 302 305 308 311 313 316 318 320 324 327 329 330 332 336 335 332 330 329 328 327 326 325 323 320 318 317
262 264 266 269 271 273 274 275 277 280 282 284 286 287 286 284 284 285 286 288 289 290 291 292 295 297 299 302 305 309 312 313 316 318 321 324 325 327 328 332 336 335 333 331 330 329 328 328 328 325 324 320
264 267 268 269 271 272 274 275 278 281 283 286 289 291 290 288 286 285 283 284 285 287 289 290 292 295 295 298 301 305 308 310 312 315 317 319 321 322 323 326 332 334 333 331 330 328 326 326 326 327 329 315
262 264 265 268 271 273 275 277 279 281 283 286 289 289 289 290 287 284 282 281 283 285 286 288 289 289 291 294 299 301 304 306 308 310 311 313 314 316 317 320 324 329 330 328 327 325 322 323 321 320 318 309
261 260 263 268 271 273 275 277 278 278 282 285 286 286 288 288 283 282 281 279 280 282 283 286 285 286 289 293 295 297 298 300 301 302 304 305 307 309 311 313 317 322 324 323 322 319 316 318 312 307 310 311
263 263 265 269 271 274 276 277 277 277 283 284 283 285 286 283 281 280 278 277 277 279 280 280 280 282 286 289 290 291 292 294 295 296 298 300 302 304 306 307 310 314 316 315 314 312 308 305 299 301 306 308
264 265 268 270 272 275 275 276 278 280 281 281 280 282 282 280 279 277 275 275 276 277 277 275 276 278 281 283 285 285 287 289 291 292 294 295 296 298 300 302 304 308 309 308 307 305 302 299 296 295 298 297